TimeMDT,TemperatureF,Dew PointF,Humidity,Sea Level PressureIn,VisibilityMPH,Wind Direction,Wind SpeedMPH,Gust SpeedMPH,PrecipitationIn,Events,Conditions,WindDirDegrees,DateUTC
5:00 AM,39.2,35.6,87,30.27,15.0,SE,4.6,-,N/A,,Mostly Cloudy,130,2013-10-23 11:00:00
6:00 AM,40,37,85,30.28,15,SSE,3.5,,,,Mostly Cloudy,150,2013-10-23 12:00:00
6:00 AM,39.2,37.4,93,30.28,15.0,SSE,3.5,-,N/A,,Mostly Cloudy,150,2013-10-23 12:00:00
7:00 AM,39.2,37.4,93,30.32,15.0,NE,4.6,-,N/A,,Overcast,40,2013-10-23 13:00:00
8:00 AM,37.4,35.6,93,30.31,20.0,South,8.1,-,N/A,,Scattered Clouds,190,2013-10-23 14:00:00
8:45 AM,37.4,37.4,100,30.31,15.0,SSE,6.9,-,N/A,,Overcast,160,2013-10-23 14:45:00
9:00 AM,39.2,37.4,93,30.30,10.0,SE,4.6,-,N/A,,Overcast,140,2013-10-23 15:00:00
10:00 AM,41.0,39.2,93,30.32,8.0,ESE,8.1,-,N/A,,Overcast,110,2013-10-23 16:00:00
11:00 AM,42.8,39.2,87,30.33,8.0,South,8.1,-,N/A,,Overcast,170,2013-10-23 17:00:00
12:00 PM,43,39,81,30.34,7,SE,4.6,,,,Overcast,140,2013-10-23 18:00:00
12:00 PM,42.8,39.2,87,30.34,8.0,SE,5.8,-,N/A,,Overcast,130,2013-10-23 18:00:00
1:00 PM,46.4,39.2,76,30.33,10.0,ESE,6.9,-,N/A,,Mostly Cloudy,110,2013-10-23 19:00:00
2:00 PM,46.4,39.2,76,30.31,10.0,SE,9.2,-,N/A,,Mostly Cloudy,140,2013-10-23 20:00:00
3:00 PM,48.2,39.2,71,30.30,15.0,SSE,11.5,-,N/A,,Mostly Cloudy,150,2013-10-23 21:00:00
4:00 PM,46.4,37.4,71,30.30,15.0,SE,11.5,-,N/A,,Scattered Clouds,130,2013-10-23 22:00:00
5:00 PM,46.4,39.2,76,30.31,15.0,SE,10.4,-,N/A,,Mostly Cloudy,130,2013-10-23 23:00:00
6:00 PM,43,37,72,30.32,15,SE,9.2,,,,Scattered Clouds,140,2013-10-24 00:00:00
6:00 PM,42.8,37.4,81,30.32,15.0,SE,9.2,-,N/A,,Scattered Clouds,140,2013-10-24 00:00:00
7:00 PM,39.2,35.6,87,30.34,15.0,SE,6.9,-,N/A,,Scattered Clouds,140,2013-10-24 01:00:00
7:32 PM,35.6,33.8,93,30.35,15.0,SSE,6.9,-,N/A,,Scattered Clouds,160,2013-10-24 01:32:00
8:00 PM,35.6,33.8,93,30.36,15.0,SSE,4.6,-,N/A,,Partly Cloudy,160,2013-10-24 02:00:00
9:00 PM,35.6,33.8,93,30.35,15.0,SSE,4.6,-,N/A,,Partly Cloudy,150,2013-10-24 03:00:00
10:00 PM,33.8,32.0,93,30.35,15.0,SE,5.8,-,N/A,,Partly Cloudy,130,2013-10-24 04:00:00